Location: Cowley
(49.5667°N, 114.0667°W)
Time: 10:48:20
(UTC+00:00)

Envisat - Pass Details

Date: 08 December 2021
Orbit: 764 x 766 km, 98.2° (Epoch: 25 January)

Event Time Altitude Azimuth Distance (km) Brightness Sun altitude
Rises 00:59:14 0° 210° (SSW) 3,222 7.1 -12.6°
Reaches altitude 10° 01:02:16 10° 229° (SW) 2,302 6.7 -13.1°
Maximum altitude 01:05:40 18° 271° (W) 1,819 6.0 -13.6°
Drops below altitude 10° 01:09:06 10° 314° (NW) 2,314 5.8 -14.2°
Sets 01:12:10 0° 333° (NNW) 3,246 6.4 -14.6°
